Weather History for Springfield, MO

Change the Weather History Date:

Friday, April 5, 2013

  Actual Average Record
Temperature  
Mean Temperature 50 °F 52 °F  
Max Temperature 69 °F 64 °F 83 °F (1954)
Min Temperature 31 °F 41 °F 16 °F (1920)
Degree Days  
Heating Degree Days 15 13  
Month to date heating degree days 102 68  
Since 1 July heating degree days 4117 4242  
Cooling Degree Days 0 0  
Month to date cooling degree days 0 0  
Year to date cooling degree days 0 3  
Moisture  
Dew Point 33 °F    
Average Humidity 56    
Maximum Humidity 82    
Minimum Humidity 30    
Precipitation  
Precipitation 0.00 in 0.12 in 1.28 in (1928)
Month to date precipitation 0.09 0.62  
Year to date precipitation 10.20 9.23  
Snow  
Snow 0.00 in - - ()
Month to date snowfall T  
Since 1 July snowfall 11.3  
Snow Depth 0.00 in    
Sea Level Pressure  
Sea Level Pressure 30.10 in    
Wind  
Wind Speed 6 mph (SSW)    
Max Wind Speed 14 mph    
Max Gust Speed 17 mph    
Visibility 10 miles    
Events      
T = Trace of Precipitation, MM = Missing Value Source: NWS Daily Summary

Daily Weather History Graph

Daily Weather History Graph

Search for Another Location

Airport:

Trip Planner

Search our weather history database for the weather conditions in past years. The results will help you decide how hot, cold, wet, or windy it might be!

Date:

Astronomy

Apr. 05, 2013 Rise Set
Actual Time 6:52 AM CDT 7:39 PM CDT
Civil Twilight 6:26 AM CDT 8:06 PM CDT
Nautical Twilight 5:55 AM CDT 8:37 PM CDT
Astronomical Twilight 5:23 AM CDT 9:09 PM CDT
Moon 3:54 AM CDT (4/5) 3:10 PM CDT (4/5)
Length of Visible Light 13h 39m
Length of Day
12h 47m
Waning Crescent, 23% of the Moon is Illuminated
Apr 5
Waning Crescent
Apr 10
New
Apr 18
First Quarter
Apr 25
Full
May 2
Last Quarter

Hourly Weather History & Observations

Time (CDT) Temp. Windchill Dew Point Humidity Pressure Visibility Wind Dir Wind Speed Gust Speed Precip Events Conditions
12:52 AM 36.0 °F - 28.0 °F 73% 30.12 in 10.0 mi Calm Calm - N/A   Clear
1:52 AM 35.1 °F 32.2 °F 27.0 °F 72% 30.13 in 10.0 mi WSW 3.5 mph - N/A   Clear
2:52 AM 35.1 °F - 27.0 °F 72% 30.13 in 10.0 mi Calm Calm - N/A   Clear
3:52 AM 34.0 °F - 26.1 °F 73% 30.13 in 10.0 mi Calm Calm - N/A   Clear
4:52 AM 34.0 °F 31.0 °F 27.0 °F 75% 30.14 in 10.0 mi WSW 3.5 mph - N/A   Clear
5:52 AM 32.0 °F 28.7 °F 26.1 °F 79% 30.15 in 10.0 mi South 3.5 mph - N/A   Clear
6:52 AM 33.1 °F 30.0 °F 27.0 °F 78% 30.16 in 10.0 mi South 3.5 mph - N/A   Clear
7:52 AM 36.0 °F 33.3 °F 30.0 °F 79% 30.17 in 10.0 mi South 3.5 mph - N/A   Clear
8:52 AM 48.0 °F - 34.0 °F 58% 30.17 in 10.0 mi South 3.5 mph - N/A   Clear
9:52 AM 55.9 °F - 35.1 °F 45% 30.18 in 10.0 mi WNW 4.6 mph - N/A   Clear
10:52 AM 60.1 °F - 35.1 °F 39% 30.19 in 10.0 mi WNW 3.5 mph - N/A   Clear
11:52 AM 63.0 °F - 34.0 °F 34% 30.19 in 10.0 mi NNW 3.5 mph - N/A   Clear
12:52 PM 64.0 °F - 34.0 °F 33% 30.16 in 10.0 mi Variable 6.9 mph - N/A   Clear
1:52 PM 66.0 °F - 35.1 °F 32% 30.13 in 10.0 mi South 8.1 mph - N/A   Clear
2:52 PM 66.9 °F - 36.0 °F 32% 30.10 in 10.0 mi South 8.1 mph - N/A   Clear
3:52 PM 66.9 °F - 36.0 °F 32% 30.07 in 10.0 mi SW 4.6 mph - N/A   Clear
4:52 PM 68.0 °F - 36.0 °F 31% 30.05 in 10.0 mi South 9.2 mph - N/A   Clear
5:52 PM 68.0 °F - 37.0 °F 32% 30.03 in 10.0 mi SSW 9.2 mph - N/A   Clear
6:52 PM 64.0 °F - 39.0 °F 40% 30.03 in 10.0 mi SSW 8.1 mph - N/A   Clear
7:52 PM 59.0 °F - 37.0 °F 44% 30.02 in 10.0 mi South 8.1 mph - N/A   Clear
8:52 PM 55.9 °F - 37.9 °F 51% 30.00 in 10.0 mi SSE 9.2 mph - N/A   Clear
9:52 PM 59.0 °F - 36.0 °F 42% 30.00 in 10.0 mi SSE 11.5 mph - N/A   Clear
10:52 PM 57.0 °F - 36.0 °F 45% 29.98 in 10.0 mi SSE 10.4 mph - N/A   Clear
11:52 PM 55.9 °F - 35.1 °F 45% 29.97 in 10.0 mi SSE 10.4 mph - N/A   Clear